Weather History for KLHW - November, 2013

Change the Weather History Date:

Saturday, November 9, 2013

  Actual Average Record
Temperature  
Mean Temperature 54 °F -  
Max Temperature 69 °F 73 °F 86 °F (1986)
Min Temperature 40 °F 49 °F 26 °F (1976)
Degree Days  
Heating Degree Days 10    
Growing Degree Days 4 (Base 50)    
Moisture  
Dew Point 49 °F    
Average Humidity 79    
Maximum Humidity 100    
Minimum Humidity 61    
Precipitation  
Precipitation 0.00 in - - ()
Sea Level Pressure  
Sea Level Pressure 30.27 in    
Wind  
Wind Speed 4 mph (NE)    
Max Wind Speed 12 mph    
Max Gust Speed -    
Visibility 9 miles    
Events      
Averages and records for this station are not official NWS values.
T = Trace of Precipitation, MM = Missing Value Source: NWS Daily Summary

Daily Weather History Graph

Daily Weather History Graph

Search for Another Location

Airport or City:

Trip Planner

Search our weather history database for the weather conditions in past years. The results will help you decide how hot, cold, wet, or windy it might be!

Date:

Astronomy

Nov. 09, 2013 Rise Set
Actual Time 6:49 AM EST 5:30 PM EST
Civil Twilight 6:24 AM EST 5:55 PM EST
Nautical Twilight 5:54 AM EST 6:24 PM EST
Astronomical Twilight 5:26 AM EST 6:53 PM EST
Moon 12:29 PM EST (11/9) 11:53 PM EST (11/9)
Length of Visible Light 11h 31m
Length of Day
10h 40m
Waxing Crescent, 44% of the Moon is Illuminated
Nov 9
Waxing Crescent
Nov 10
First Quarter
Nov 17
Full
Nov 25
Last Quarter
Dec 2
New

Hourly Weather History & Observations

Time (EST) Temp. Windchill Dew Point Humidity Pressure Visibility Wind Dir Wind Speed Gust Speed Precip Events Conditions
12:58 AM 43.0 °F - 38.8 °F 85% 30.28 in 10.0 mi Calm Calm - N/A   Clear
1:58 AM 40.3 °F 38.2 °F 39.2 °F 96% 30.27 in 10.0 mi North 3.5 mph - N/A   Clear
2:58 AM 44.6 °F 41.4 °F 39.0 °F 81% 30.27 in 10.0 mi NNE 5.8 mph - N/A   Clear
3:58 AM 46.0 °F 42.5 °F 39.0 °F 76% 30.27 in 10.0 mi NNE 6.9 mph - N/A   Mostly Cloudy
4:58 AM 45.5 °F 42.5 °F 38.8 °F 78% 30.27 in 10.0 mi NNE 5.8 mph - N/A   Scattered Clouds
5:58 AM 45.0 °F 41.8 °F 38.7 °F 79% 30.29 in 10.0 mi North 5.8 mph - N/A   Mostly Cloudy
6:58 AM 45.3 °F 41.6 °F 39.0 °F 79% 30.30 in 10.0 mi NNE 6.9 mph - N/A   Overcast
7:58 AM 47.5 °F - 40.1 °F 76% 30.30 in 10.0 mi NNE 6.9 mph - N/A   Mostly Cloudy
8:58 AM 54.1 °F - 43.2 °F 66% 30.32 in 9.0 mi NE 6.9 mph - N/A   Clear
9:58 AM 60.3 °F - 46.9 °F 61% 30.33 in 9.0 mi NE 8.1 mph - N/A   Clear
10:58 AM 64.6 °F - 51.1 °F 62% 30.31 in 9.0 mi ENE 5.8 mph - N/A   Clear
11:58 AM 66.6 °F - 53.2 °F 62% 30.29 in 4.0 mi ENE 11.5 mph - N/A   Haze
12:58 PM 68.2 °F - 54.9 °F 62% 30.26 in 5.0 mi East 6.9 mph - N/A   Haze
1:58 PM 69.6 °F - 55.8 °F 61% 30.24 in 10.0 mi Variable 5.8 mph - N/A   Overcast
2:58 PM 69.4 °F - 56.5 °F 63% 30.23 in 10.0 mi East 6.9 mph - N/A   Overcast
3:58 PM 69.3 °F - 56.7 °F 64% 30.24 in 10.0 mi ENE 5.8 mph - N/A   Mostly Cloudy
4:58 PM 66.4 °F - 57.7 °F 74% 30.25 in 10.0 mi East 3.5 mph - N/A   Mostly Cloudy
5:58 PM 61.2 °F - 58.3 °F 90% 30.26 in 10.0 mi North 2.3 mph - N/A   Scattered Clouds
6:58 PM 58.3 °F - 56.3 °F 93% 30.25 in 10.0 mi NNE 4.6 mph - N/A   Partly Cloudy
7:58 PM 58.3 °F - 55.8 °F 91% 30.25 in 10.0 mi NE 1.2 mph - N/A   Overcast
8:58 PM 56.3 °F - 55.4 °F 97% 30.25 in 10.0 mi ESE 2.3 mph - N/A   Overcast
9:58 PM 55.2 °F - 54.7 °F 98% 30.25 in 10.0 mi Calm Calm - N/A   Overcast
10:58 PM 54.7 °F - 54.7 °F 100% 30.24 in 10.0 mi Calm Calm - N/A   Mostly Cloudy
11:58 PM 54.9 °F - 54.1 °F 97% 30.22 in 10.0 mi North 2.3 mph - N/A   Mostly Cloudy